Weather History for KUIL - April, 2011

Change the Weather History Date:

Tuesday, April 19, 2011

  Actual Average Record
Temperature  
Mean Temperature 41 °F 47 °F  
Max Temperature 50 °F 55 °F 71 °F (1988)
Min Temperature 32 °F 39 °F 29 °F (1982)
Degree Days  
Heating Degree Days 24 18  
Month to date heating degree days 360  
Since 1 July heating degree days 4853  
Cooling Degree Days 0 0  
Month to date cooling degree days 0  
Year to date cooling degree days 0  
Moisture  
Dew Point 36 °F    
Average Humidity 84    
Maximum Humidity 100    
Minimum Humidity 56    
Precipitation  
Precipitation 0.08 in 0.27 in 1.86 in (1997)
Month to date precipitation 5.32  
Year to date precipitation 41.11  
Sea Level Pressure  
Sea Level Pressure 30.18 in    
Wind  
Wind Speed 5 mph (SSW)    
Max Wind Speed 16 mph    
Max Gust Speed 21 mph    
Visibility 9 miles    
Events Rain    
T = Trace of Precipitation, MM = Missing Value Source: NWS Daily Summary

Daily Weather History Graph

Daily Weather History Graph

Search for Another Location

Airport or City:

Trip Planner

Search our weather history database for the weather conditions in past years. The results will help you decide how hot, cold, wet, or windy it might be!

Date:

Astronomy

Apr. 19, 2011 Rise Set
Actual Time 6:21 AM PDT 8:13 PM PDT
Civil Twilight 5:48 AM PDT 8:47 PM PDT
Nautical Twilight 5:08 AM PDT 9:27 PM PDT
Astronomical Twilight 4:23 AM PDT 10:13 PM PDT
Moon 11:01 PM PDT (4/19) 6:54 AM PDT (4/19)
Length of Visible Light 14h 58m
Length of Day
13h 52m
Waning Gibbous, 96% of the Moon is Illuminated
Apr 19
Waning Gibbous
Apr 24
Last Quarter
May 2
New
May 10
First Quarter
May 17
Full

Hourly Weather History & Observations

Time (PDT) Temp. Windchill Dew Point Humidity Pressure Visibility Wind Dir Wind Speed Gust Speed Precip Events Conditions
12:53 AM 35.1 °F 32.2 °F 34.0 °F 96% 30.17 in 10.0 mi East 3.5 mph - N/A   Scattered Clouds
1:53 AM 34.0 °F 31.0 °F 34.0 °F 100% 30.17 in 10.0 mi NE 3.5 mph - N/A   Mostly Cloudy
2:53 AM 35.1 °F - 34.0 °F 96% 30.17 in 10.0 mi Calm Calm - N/A   Mostly Cloudy
3:53 AM 36.0 °F 33.3 °F 35.1 °F 97% 30.17 in 10.0 mi East 3.5 mph - 0.00 in   Mostly Cloudy
4:53 AM 36.0 °F 33.3 °F 35.1 °F 97% 30.17 in 10.0 mi East 3.5 mph - 0.00 in Rain Light Rain
5:53 AM 36.0 °F - 35.1 °F 97% 30.17 in 10.0 mi Calm Calm - 0.00 in Rain Light Rain
6:53 AM 36.0 °F - 35.1 °F 97% 30.17 in 10.0 mi Calm Calm - 0.00 in   Mostly Cloudy
7:18 AM 37.4 °F - 35.6 °F 93% 30.18 in 4.0 mi Calm Calm - 0.01 in Rain Rain
7:24 AM 37.4 °F - 35.6 °F 93% 30.18 in 1.8 mi Calm Calm - 0.03 in Rain Rain
7:36 AM 35.6 °F 31.7 °F 35.6 °F 100% 30.18 in 3.0 mi ESE 4.6 mph - 0.07 in Rain Light Rain
7:53 AM 37.0 °F - 36.0 °F 96% 30.19 in 10.0 mi Calm Calm - 0.07 in   Mostly Cloudy
8:53 AM 39.9 °F 37.8 °F 39.0 °F 97% 30.20 in 10.0 mi ESE 3.5 mph - 0.01 in   Partly Cloudy
9:28 AM 42.8 °F 41.1 °F 39.2 °F 87% 30.20 in 10.0 mi ESE 3.5 mph - N/A   Scattered Clouds
9:53 AM 44.1 °F 42.5 °F 41.0 °F 89% 30.20 in 10.0 mi SE 3.5 mph - N/A   Mostly Cloudy
10:09 AM 44.6 °F 43.1 °F 39.2 °F 81% 30.20 in 10.0 mi Variable 3.5 mph - N/A   Overcast
10:44 AM 44.6 °F 41.4 °F 39.2 °F 81% 30.20 in 10.0 mi SSW 5.8 mph - 0.00 in   Mostly Cloudy
10:53 AM 46.0 °F 43.1 °F 42.1 °F 86% 30.21 in 10.0 mi South 5.8 mph - 0.00 in   Mostly Cloudy
11:53 AM 46.0 °F 41.0 °F 36.0 °F 68% 30.22 in 10.0 mi West 10.4 mph - N/A   Partly Cloudy
12:53 PM 48.0 °F - 34.0 °F 58% 30.21 in 10.0 mi WSW 10.4 mph - N/A   Scattered Clouds
1:53 PM 46.9 °F - 36.0 °F 66% 30.21 in 10.0 mi West 10.4 mph 18.4 mph 0.00 in   Mostly Cloudy
2:53 PM 48.9 °F - 34.0 °F 56% 30.21 in 10.0 mi WSW 11.5 mph 18.4 mph N/A   Mostly Cloudy
3:53 PM 50.0 °F - 36.0 °F 59% 30.20 in 10.0 mi West 11.5 mph 18.4 mph N/A   Overcast
4:53 PM 48.9 °F - 35.1 °F 59% 30.18 in 10.0 mi West 8.1 mph - N/A   Mostly Cloudy
5:53 PM 46.9 °F - 35.1 °F 63% 30.17 in 10.0 mi West 11.5 mph - N/A   Partly Cloudy
6:53 PM 45.0 °F 41.2 °F 35.1 °F 68% 30.16 in 10.0 mi Variable 6.9 mph - N/A   Mostly Cloudy
7:53 PM 43.0 °F 41.3 °F 34.0 °F 71% 30.15 in 10.0 mi WNW 3.5 mph - N/A   Clear
8:53 PM 39.9 °F - 35.1 °F 83% 30.14 in 10.0 mi Calm Calm - N/A   Clear
9:53 PM 36.0 °F - 34.0 °F 93% 30.14 in 10.0 mi Calm Calm - N/A   Clear
10:53 PM 35.1 °F - 33.1 °F 92% 30.13 in 10.0 mi Calm Calm - N/A   Clear
11:53 PM 32.0 °F - 30.9 °F 96% 30.12 in 10.0 mi Calm Calm - N/A   Clear